Home   Weather   Medina   Past weeks
Flag for Saudi Arabia

Past Weather in Medina, Saudi Arabia — Yesterday and Last 2 Weeks

Now
59 °F

Clear.


Feels Like: 59 °F
Forecast: 84 / 59 °F
Wind: No wind

Location: Madinah

Current Time: Mar 27, 2019 at 6:14:44 am

Latest Report: Mar 27, 2019 at 5:00 am


Visibility: 10 mi

Pressure: 30.04 "Hg (27.96 "Hg at 606m altitude)

Humidity: 48%

Dew Point: 39 °F

Location of MedinaLocation

Past Weather in Medina — Graph

°F

Medina Temperature Yesterday

Maximum temperature yesterday: 77 °F (at 3:00 pm)
Minimum temperature yesterday: 59 °F (at 7:00 am)
Average temperature yesterday: 68 °F

High & Low Weather Summary for the Past Weeks

 TemperatureHumidityPressure
High91 °F (Mar 24, 1:00 pm)61% (Mar 14, 5:00 am)30.18 "Hg (Mar 14, 5:00 am)
Low54 °F (Mar 16, 7:00 am)4% (Mar 14, 5:00 pm)29.59 "Hg (Mar 24, 3:00 pm)
Average75 °F22%29.91 "Hg
* Reported Mar 12 5:00 am — Mar 27 5:00 am, Medina. Weather by CustomWeather, © 2019

Note: Actual official high and low records may vary slightly from our data, if they occured in-between our weather recording intervals... More about our weather records

Advertising

Medina Weather History for the Previous 24 Hours

Scroll right to see more
 ConditionsComfort  
Time TempWeatherWind HumidityBarometerVisibility
5:00 am
Wed, Mar 27
59 °FClear.No wind48%30.04 "Hg10 mi
4:00 am61 °FClear.No wind42%30.04 "Hg10 mi
3:00 am64 °FClear.6 mph40%30.04 "Hg10 mi
2:00 am64 °FClear.5 mph43%30.04 "Hg10 mi
1:00 am64 °FClear.7 mph43%30.04 "Hg10 mi
12:00 am66 °FClear.6 mph43%30.04 "Hg10 mi
11:00 pm
Tue, Mar 26
68 °FClear.6 mph38%30.04 "Hg10 mi
10:00 pm70 °FClear.5 mph35%30.01 "Hg10 mi
9:00 pm72 °FClear.7 mph31%30.01 "Hg10 mi
8:00 pm72 °FClear.5 mph25%29.98 "Hg10 mi
7:00 pm73 °FClear.7 mph23%29.95 "Hg10 mi
6:00 pm75 °FSunny.7 mph22%29.92 "Hg10 mi
5:00 pm77 °FSunny.8 mph17%29.92 "Hg10 mi
4:00 pm77 °FSunny.5 mph15%29.89 "Hg10 mi
3:00 pm77 °FSunny.3 mph15%29.89 "Hg10 mi
2:00 pm75 °FSunny.9 mph16%29.92 "Hg10 mi
1:00 pm73 °FSunny.7 mph19%29.95 "Hg10 mi
12:00 pm70 °FSunny.5 mph23%29.98 "Hg10 mi
11:00 am68 °FSunny.5 mph24%29.98 "Hg10 mi
10:00 am68 °FSunny.5 mph24%30.01 "Hg10 mi
9:00 am64 °FSunny.No wind30%29.98 "Hg10 mi
8:00 am61 °FSunny.6 mph34%29.95 "Hg10 mi
7:00 am59 °FSunny.6 mph39%29.95 "Hg10 mi
6:00 am61 °FClear.No wind34%29.92 "Hg10 mi
Weather by CustomWeather, © 2019

See weather overview